When you browse on this site, cookies collect data to enhance your experience and personalize the content and advertising you see.
Visit our Privacy Policy to learn more. By continuing to use the site, you agree to this use of cookies and data.
  • In Spain
  • List of Countries
  • For 7 days
  • Water Temperature
  • Weather Map
  • Weather Widgets
  • user-avatar
    Login

    Hourly Weather Rimini

    Today, 20 November, Wednesday

    Time Temperature Precipitation Wind Pressure Humidity
    00:00 +12°C° 0 mm 3 mps 760 mmHg 80%
    01:00 +12°C° 0 mm 3 mps 760 mmHg 79%
    02:00 +11°C° 0 mm 4 mps 759 mmHg 80%
    03:00 +11°C° 0 mm 4 mps 759 mmHg 81%
    04:00 +11°C° 0 mm 4 mps 759 mmHg 82%
    05:00 +10°C° 0.1 mm 5 mps 758 mmHg 82%
    06:00 +10°C° 0.1 mm 5 mps 758 mmHg 82%
    07:00 +10°C° 0.1 mm 5 mps 758 mmHg 82%
    08:00 +12°C° 0.3 mm 5 mps 758 mmHg 82%
    09:00 +12°C° 0.3 mm 5 mps 759 mmHg 82%
    10:00 +13°C° 0.3 mm 5 mps 759 mmHg 82%
    11:00 +13°C° 0.4 mm 5 mps 759 mmHg 80%
    12:00 +14°C° 0.4 mm 5 mps 759 mmHg 79%
    13:00 +15°C° 0.4 mm 4 mps 758 mmHg 77%
    14:00 +14°C° 0.1 mm 4 mps 758 mmHg 79%
    15:00 +14°C° 0.1 mm 4 mps 758 mmHg 82%
    16:00 +13°C° 0.1 mm 4 mps 758 mmHg 84%
    17:00 +13°C° 0 mm 3 mps 758 mmHg 86%
    18:00 +12°C° 0 mm 3 mps 759 mmHg 88%
    19:00 +11°C° 0 mm 3 mps 759 mmHg 90%
    20:00 +11°C° 0 mm 3 mps 759 mmHg 88%
    21:00 +12°C° 0 mm 2 mps 759 mmHg 87%
    22:00 +12°C° 0 mm 2 mps 760 mmHg 85%
    23:00 +12°C° 0 mm 2 mps 760 mmHg 86%

    Tomorrow, 21 November, Thursday

    Time Temperature Precipitation Wind Pressure Humidity
    00:00 +10°C° 0 mm 2 mps 760 mmHg 86%
    01:00 +10°C° 0 mm 2 mps 760 mmHg 86%
    02:00 +10°C° 0 mm 2 mps 760 mmHg 86%
    03:00 +12°C° 0 mm 2 mps 759 mmHg 86%
    04:00 +11°C° 0 mm 3 mps 759 mmHg 86%
    05:00 +10°C° 0 mm 3 mps 759 mmHg 86%
    06:00 +10°C° 0 mm 3 mps 759 mmHg 86%
    07:00 +10°C° 0 mm 3 mps 759 mmHg 86%
    08:00 +11°C° 0 mm 3 mps 759 mmHg 81%
    09:00 +12°C° 0 mm 3 mps 759 mmHg 77%
    10:00 +13°C° 0 mm 3 mps 760 mmHg 72%
    11:00 +14°C° 0 mm 3 mps 759 mmHg 68%
    12:00 +14°C° 0 mm 3 mps 759 mmHg 65%
    13:00 +16°C° 0 mm 3 mps 759 mmHg 61%
    14:00 +14°C° 0 mm 3 mps 759 mmHg 64%
    15:00 +14°C° 0 mm 3 mps 759 mmHg 67%
    16:00 +15°C° 0 mm 2 mps 759 mmHg 70%
    17:00 +13°C° 0 mm 3 mps 759 mmHg 72%
    18:00 +13°C° 0 mm 3 mps 759 mmHg 75%
    19:00 +12°C° 0 mm 3 mps 760 mmHg 77%
    20:00 +12°C° 0 mm 2 mps 760 mmHg 80%
    21:00 +12°C° 0 mm 2 mps 760 mmHg 82%
    22:00 +10°C° 0 mm 2 mps 760 mmHg 85%
    23:00 +10°C° 0 mm 2 mps 760 mmHg 85%

    Day after tomorrow, 22 November, Friday

    Time Temperature Precipitation Wind Pressure Humidity
    00:00 +11°C° 0 mm 1 mps 760 mmHg 85%
    01:00 +11°C° 0 mm 1 mps 760 mmHg 85%
    02:00 +11°C° 0 mm 1 mps 760 mmHg 85%
    03:00 +11°C° 0 mm 1 mps 760 mmHg 86%
    04:00 +10°C° 0 mm 1 mps 759 mmHg 86%
    05:00 +10°C° 0 mm 1 mps 760 mmHg 85%
    06:00 +10°C° 0 mm 1 mps 760 mmHg 85%
    07:00 +10°C° 0 mm 1 mps 760 mmHg 84%
    08:00 +12°C° 0 mm 1 mps 760 mmHg 80%
    09:00 +13°C° 0 mm 1 mps 760 mmHg 76%
    10:00 +14°C° 0 mm 1 mps 760 mmHg 71%
    11:00 +15°C° 0 mm 2 mps 760 mmHg 69%
    12:00 +14°C° 0 mm 3 mps 760 mmHg 67%
    13:00 +16°C° 0 mm 3 mps 760 mmHg 65%
    14:00 +14°C° 0 mm 3 mps 760 mmHg 68%
    15:00 +14°C° 0 mm 4 mps 760 mmHg 71%
    16:00 +14°C° 0 mm 4 mps 759 mmHg 74%
    17:00 +13°C° 0 mm 4 mps 759 mmHg 77%
    18:00 +12°C° 0 mm 4 mps 760 mmHg 80%
    19:00 +11°C° 0 mm 4 mps 760 mmHg 83%
    20:00 +11°C° 0 mm 3 mps 760 mmHg 84%
    21:00 +11°C° 0 mm 3 mps 760 mmHg 85%
    22:00 +12°C° 0 mm 2 mps 760 mmHg 85%
    23:00 +10°C° 0 mm 2 mps 759 mmHg 86%

    23 November, Saturday

    Time Temperature Precipitation Wind Pressure Humidity
    00:00 +10°C° 0 mm 2 mps 759 mmHg 86%
    01:00 +10°C° 0 mm 2 mps 759 mmHg 86%
    02:00 +10°C° 0 mm 2 mps 759 mmHg 86%
    03:00 +10°C° 0 mm 3 mps 759 mmHg 86%
    04:00 +10°C° 0 mm 3 mps 758 mmHg 86%
    05:00 +10°C° 0 mm 3 mps 758 mmHg 85%
    06:00 +11°C° 0 mm 3 mps 758 mmHg 84%
    07:00 +11°C° 0 mm 3 mps 758 mmHg 83%
    08:00 +12°C° 0 mm 3 mps 758 mmHg 77%
    09:00 +13°C° 0 mm 3 mps 758 mmHg 72%
    10:00 +16°C° 0 mm 3 mps 758 mmHg 67%
    11:00 +15°C° 0 mm 4 mps 758 mmHg 62%
    12:00 +17°C° 0 mm 4 mps 757 mmHg 58%
    13:00 +17°C° 0 mm 5 mps 757 mmHg 54%
    14:00 +16°C° 0 mm 5 mps 757 mmHg 59%
    15:00 +15°C° 0 mm 5 mps 756 mmHg 63%
    16:00 +14°C° 0 mm 5 mps 756 mmHg 68%
    17:00 +14°C° 0 mm 4 mps 756 mmHg 70%
    18:00 +13°C° 0 mm 4 mps 756 mmHg 73%
    19:00 +12°C° 0 mm 4 mps 756 mmHg 75%
    20:00 +12°C° 0 mm 3 mps 756 mmHg 74%
    21:00 +12°C° 0 mm 3 mps 756 mmHg 74%
    22:00 +13°C° 0 mm 2 mps 756 mmHg 73%
    23:00 +13°C° 0 mm 2 mps 756 mmHg 72%

    24 November, Sunday

    Time Temperature Precipitation Wind Pressure Humidity
    00:00 +13°C° 0 mm 2 mps 756 mmHg 71%
    01:00 +13°C° 0 mm 1 mps 756 mmHg 69%
    02:00 +13°C° 0 mm 1 mps 755 mmHg 69%
    03:00 +13°C° 0 mm 2 mps 755 mmHg 69%
    04:00 +13°C° 0 mm 2 mps 755 mmHg 69%
    05:00 +12°C° 0 mm 2 mps 754 mmHg 72%
    06:00 +12°C° 0 mm 2 mps 754 mmHg 75%
    07:00 +12°C° 0 mm 2 mps 754 mmHg 78%
    08:00 +13°C° 0.1 mm 2 mps 755 mmHg 77%
    09:00 +14°C° 0.1 mm 2 mps 755 mmHg 76%
    10:00 +13°C° 0.1 mm 3 mps 755 mmHg 75%
    11:00 +14°C° 0.3 mm 3 mps 755 mmHg 76%
    12:00 +15°C° 0.3 mm 4 mps 755 mmHg 78%
    13:00 +15°C° 0.3 mm 4 mps 754 mmHg 79%
    14:00 +15°C° 0.5 mm 5 mps 754 mmHg 82%
    15:00 +15°C° 0.5 mm 5 mps 754 mmHg 85%
    16:00 +14°C° 0.5 mm 5 mps 754 mmHg 88%
    17:00 +14°C° 0.3 mm 6 mps 754 mmHg 88%
    18:00 +14°C° 0.3 mm 6 mps 754 mmHg 88%
    19:00 +14°C° 0.3 mm 6 mps 755 mmHg 88%
    20:00 +14°C° 0.4 mm 5 mps 755 mmHg 89%
    21:00 +14°C° 0.4 mm 4 mps 755 mmHg 90%
    22:00 +14°C° 0.4 mm 3 mps 755 mmHg 91%
    23:00 +13°C° 0.3 mm 3 mps 755 mmHg 91%

    25 November, Monday

    Time Temperature Precipitation Wind Pressure Humidity
    00:00 +13°C° 0.3 mm 3 mps 755 mmHg 92%
    01:00 +13°C° 0.3 mm 3 mps 755 mmHg 93%
    02:00 +12°C° 0 mm 3 mps 755 mmHg 93%
    03:00 +12°C° 0 mm 4 mps 755 mmHg 94%
    04:00 +12°C° 0 mm 4 mps 755 mmHg 95%
    05:00 +12°C° 0 mm 5 mps 755 mmHg 95%
    06:00 +12°C° 0 mm 5 mps 755 mmHg 95%
    07:00 +10°C° 0 mm 5 mps 755 mmHg 95%
    08:00 +12°C° 0 mm 5 mps 755 mmHg 90%
    09:00 +13°C° 0 mm 5 mps 756 mmHg 86%
    10:00 +14°C° 0 mm 5 mps 756 mmHg 82%
    11:00 +14°C° 0 mm 5 mps 756 mmHg 79%
    12:00 +15°C° 0 mm 5 mps 756 mmHg 76%
    13:00 +15°C° 0 mm 5 mps 755 mmHg 72%
    14:00 +15°C° 0 mm 4 mps 755 mmHg 74%
    15:00 +14°C° 0 mm 3 mps 755 mmHg 76%
    16:00 +15°C° 0 mm 2 mps 755 mmHg 79%
    17:00 +14°C° 0 mm 2 mps 756 mmHg 81%
    18:00 +13°C° 0 mm 1 mps 756 mmHg 84%
    19:00 +12°C° 0 mm 1 mps 756 mmHg 87%
    20:00 +12°C° 0 mm 1 mps 756 mmHg 86%
    21:00 +12°C° 0 mm 1 mps 756 mmHg 85%
    22:00 +12°C° 0 mm 1 mps 756 mmHg 84%
    23:00 +11°C° 0 mm 1 mps 756 mmHg 83%
    Show more